Погода Лиепая

Погода Лиепая : погода сейчас, прогноз погоды и архив. Всё, что Вы хотите узнать о погоде Лиепая!

Поиск расширенной информации на нашем сайте:

Другие новости

Новости СМИ2

Главная страница сайта

Новости сайта

03.07.2017

Напоминаем, что на нашем специализированном сайте Метеоцентр.Азия вы можете получить высокодетализированные автоматические прогнозы погоды по пунктам России, СНГ и мира в авиационном формате (включающие направление и скорость ветра, видимость, явления погоды, количество и форму облачности, нижнюю и верхнюю границу облачности).


Погода Лиепая - сегодня

Время (UTC), дата Ветер
(°,м/с) 
Видим.   Явления Облачность Т
(°С)
Тd
(°С)
f(%) Тe
(°С)
Pmin
(гПа)
dP
(гПа)
Po
(мм)
O2
(г/м3)
Тmin Tmax R s Состояние
почвы
09 13.01.18 110 (В) 10 км    9/6 1110 м средняя 
[Sc|Ac trans]
-2.9 -5.9 80 -4  1042.9  0.5  781  318           
12 13.01.18 100 (В) 10 км    10/6 1050 м средняя 
[Sc|Ac und]
-1.8 -6.2 72 -3  1042.6  -0.3  782  318           
15 13.01.18 080 (В) 10 км    8/4 600 м средняя, верхняя 
[Sc|Ac trans|Ci sp]
-3.9 -6.4 83 -3  1041.9  -0.7  781  319           
18 13.01.18 090 (В) 10 км    3/0 верхняя 
[Ci fib]
-6.1 -7.3 91 -8  1041.9  781  322    -1.7       
21 13.01.18 110 (В) 10 км    ясно 
-7 -7.9 93 -8  1041.6  -0.3  780  323           
00 14.01.18 080 (В) 10 км    ясно 
-7.7 -8.6 93 -9  1041.2  -0.4  780  325           
03 14.01.18 100 (В) 10 км    ясно 
-8.7 -9.6 93 -10  1040.2  -1  779  324           
06 14.01.18 120 (ЮВ) 4000 м  дымка [диам. изморози 1 мм]  8/6 360 м верхняя 
[St|Ci sp]
-8.6 -9.2 95 -11  1039.8  -0.4  779  324  -9.4         
09 14.01.18 140 (ЮВ) 4000 м  дымка [диам. изморози 2 мм]  10/10 400 м 
[St]
-7.3 -8.3 93 -9  1039.7  -0.1  779  323           
12 14.01.18 110 (В) 10 км  слаб. снег  10/10 360 м 
[Ns]
-6.9 -8.3 90 -10  1038.6  -1.1  779  323           
15 14.01.18 160 (Ю) 4000 м  слаб. снег  10/10 360 м 
[Ns]
-7.1 -8.7 88 -9  1037.7  -0.9  778  322           
18 14.01.18 160 (Ю) 4000 м  слаб. снег  10/10 420 м 
[Ns]
-7.3 -9.2 86 -10  1036.8  -0.9  777  322    -6.6  0.0     
21 14.01.18 140 (ЮВ) 10 км  {снег}  10/10 420 м 
[St]
-7.8 -9.8 86 -11  1036  -0.8  776  322           
00 15.01.18 140 (ЮВ) 10 км  {снег}  10/10 450 м 
[St]
-8 -10.3 83 -12  1034.5  -1.5  775  323           
03 15.01.18 140 (ЮВ) 10 км    10/10 480 м 
[St]
-7.7 -10.3 82 -11  1032.8  -1.7  774  321           
06 15.01.18 160 (Ю) 4000 м  слаб. снег  10/10 500 м 
[Ns]
-8.1 -10.4 83 -11  1031.2  -1.6  773  321  -8.1    0.0  <0.5  равномерный
сухой снег
100% 
09 15.01.18 170 (Ю) 4000 м  слаб. снег  10/10 570 м 
[Ns]
-7.8 -10.6 80 -11  1029.7  -1.5  772  321           
12 15.01.18 150 (ЮВ) 5-10{10}  4000 м  слаб. ливневой снег  9/6 570 м кучево-дожд., средняя, верхняя 
[Cb cap|Ac trans|Cs]
-7.3 -11 75 -12  1026.5  -3.2  769  320           
15 15.01.18 150 (ЮВ) 5{10}  4000 м  слаб. ливневой снег  9/6 600 м кучево-дожд., средняя, верхняя 
[Cb cap|Ac trans|Ci sp]
-7.7 -11.1 77 -12  1023.5  -3  767  318           
18 15.01.18 150 (ЮВ) 6-10{11}  10 км  в посл. час ливневой снег  8/6 570 м кучево-дожд., средняя 
[Cb calv|Ac trans]
-8.1 -11.5 76 -13  1020.2  -3.3  764  318    -7.2  0.4     
21 15.01.18 150 (ЮВ) 5-10{11}  10 км    3/1 600 м верхняя 
[Sc|Ci fib]
-8.9 -11.8 79 -13  1016.9  -3.3  762  318           
00 16.01.18 130 (ЮВ) 6-12{11}  10 км    1/0 верхняя 
[Ci fib]
-8.4 -11 81 -13  1012.8  -4.1  759  317           
03 16.01.18 140 (ЮВ) 6-10{13}  10 км    ясно 
-7.7 -10.1 83 -13  1008.5  -4.3  756  314           
06 16.01.18 140 (ЮВ) 6-11{13}  10 км    3/1 600 м средняя 
[Sc|Ac trans]
-7.5 -10.7 78 -12  1005.2  -3.3  753  312  -9      равномерный
сухой снег
100% 
09 16.01.18 140 (ЮВ) 8-14{16}  10 км    1/0 верхняя 
[Ci sp]
-6.9 -11.7 69 -13  1001.8  -3.4  751  311           
Время (UTC), дата Ветер
(°,м/с) 
Видим.   Явления Облачность Т
(°С)
Тd
(°С)
f(%) Тe
(°С)
Pmin
(гПа)
dP
(гПа)
Po
(мм)
O2
(г/м3)
Тmin Tmax R s Состояние
почвы

Для получения пояснительной информации подведите курсор к названию столбца.

ПОГОДА Лиепая - архив

Всё, что Вы хотите узнать о погоде Лиепая - удобно и подробно!

Выберите нужную дату (начиная с 1 января 2015* года) и нажмите кнопку "Найти".
Будут отображены архивные сводки погоды по пункту Лиепая, начиная с указанной даты.


Отображать данные в формате CSV (для использования в таблицах Excel)


Внимание! Наш архив погоды предназначен исключительно для личного некоммерческого использования в познавательных целях. Если Вам необходимы официальные справки о состоянии погоды (для производственных, юридических, коммерческих и т.п. целей), обращайтесь в органы Росгидромета.

*Примечание: данная дата относится к архиву по метеостанциям СССР (Россия, СНГ, Балтия).
Архив по метеостанциям Зарубежной Европы и Азии (кроме Китая) хранится 10 дней, по другим регионам земного шара (Китай, Африка, Америка, Австралия, Океания) - 1 день.

Лиепая - район местоположения метеостанции


Название, широта, долгота, высота метеостанции:
Лиепая 56.5°ш. 21°д. 7 м над ур. моря [Латвия]

Дополнительная информация

В oтличие oт бoльшинства пoгoдных сайтoв мы публикуем пoдрoбную метеoинфoрмацию в детальнoм прoфессиoнальнoм фoрмате.

Характеристики температуры и влажнoсти вoздуха измеряются на высoте 2 м в тени вдали oт зданий и деревьев.
Скoрoсть ветра измеряется на высoте 10 м (на урoвне рoста челoвека скoрoсть ветра ниже в 1.5-2 раза). Если метеoстанция нахoдится в гoрoде или в лесу, тo скoрoсть ветра занижена на 2-4 м/с пo сравнению с oткрытым местoм. Скoрoсть ветра над акватoриями крупных рек и oзёр, а также на вершинах хoлмoв на 2-5 м/с выше, чем в oбычных услoвиях.
Атмoсфернoе давление в разных тoчках местнoсти мoжет значительнo oтличаться oт давления на метеoстанции, в зависимoсти oт услoвий рельефа (при пoдъёме на 10 м давление пoнижается примернo на 1 мм рт.ст.).